WESTFORD NEEDLES, 19946

Orbit data source: Space-Track

WESTFORD NEEDLES, 19946 is space debris in LEO originally from a launch on Thu, 09 May 1963 UTC launched from the Air Force Western Test Range (AFWTR). Debris objects in space refer to the collection of defunct objects orbiting the Earth. Examples of debris include non-operational satellites, rocket bodies, and fragments generated from explosions, collisions, or faulty payload assembly.

Loading next visibility...
Identifier
19946, 1963-014EU
Orbit
LEO
Country
Flag of USUS
Related business
Manufacturer
Unknown
Mission
Spacecraft
Bus & Motor
Unknown
Mass
Unknown
Launch date (UTC)
1963-05-09 (63 years ago)
Launch vehicle
Unknown
Launch site
Air Force Western Test Range (AFWTR)
Object type
Payload
Rocket body
Debris
Shape & HBR
Unknown shape, 0.2 m
Radar Cross Section
Medium (>0.1 m² and <1 m²)

Expand to show TLE details & history
Last TLE update: 3 weeks ago

TLE from 3 weeks ago
0 WESTFORD NEEDLES
1 19946U 63014EU  26151.96780848  .00000312  00000-0  12990+0 0  9994
2 19946  87.1438 323.9550 0392059 303.6853 219.5791  8.68558928187161
Epoch: 2026-05-31T23:13Z
TLE epoch observation values (Epoch: 2026-05-31T23:13:38.652Z)
Latitude
19.46449°
Longitude
-94.92441°
Altitude
3,928.754 km
Speed
6.124 km/s
True Right ascension
09h 31m 47s
True Declination
19° 23' 24"
Sunlit
Object was in daylight at epoch
Visualization orbit readout
Latitude
Unknown
Longitude
Unknown
Altitude
Unknown
Speed
Unknown
Apparent Right ascension
Unknown
Apparent Declination
Unknown
Sunlit
N/A
Visualization observer readout
Local Sidereal Time
21:21:09
Azimuth
Unknown
Elevation
Unknown
Doppler factor
Unknown
Orbital elements
Apogee altitude
4,008.517 km
Perigee altitude
3,224.807 km
Semi-major axis
9,994.799 km
Eccentricity
0.03921
Inclination
87.1438°
RAAN
323.955°
Arg. of periapsis
303.6853°
True anomaly
216.82202°
Mean anomaly
219.5791°
Eccentric anomaly
218.19025°
Mean motion
2.17211 °/min
Orbital period
165.74 mins
BSTAR
0.1299
Loading maneuver chart data...
Computing Atmospheric mass density...
Loading historical data...
Loading historical data...
Loading historical data...
Loading historical data...
Loading historical data...
Loading historical data...
Loading historical data...

Documentation

Showing up to 5 results
|